Weather History for Rexburg, ID

Change the Weather History Date:

Tuesday, May 14, 2013

  Actual Average Record
Temperature  
Mean Temperature 64 °F 52 °F  
Max Temperature 77 °F 66 °F 81 °F (2006)
Min Temperature 50 °F 38 °F 29 °F (2010)
Degree Days  
Heating Degree Days 1 13  
Month to date heating degree days 151 211  
Since 1 July heating degree days 7495 7776  
Cooling Degree Days 0 0  
Month to date cooling degree days 2 0  
Year to date cooling degree days 2 0  
Growing Degree Days 13 (Base 50)    
Moisture  
Dew Point 36 °F    
Average Humidity 38    
Maximum Humidity 59    
Minimum Humidity 16    
Precipitation  
Precipitation 0.00 in 0.06 in 0.44 in (1990)
Month to date precipitation 0.20 0.76  
Year to date precipitation 3.21 4.87  
Sea Level Pressure  
Sea Level Pressure 29.85 in    
Wind  
Wind Speed 15 mph (SSW)    
Max Wind Speed 29 mph    
Max Gust Speed 43 mph    
Visibility 10 miles    
Events      
T = Trace of Precipitation, MM = Missing Value Source: NWS Daily Summary

Daily Weather History Graph

Daily Weather History Graph

Search for Another Location

Airport:

Trip Planner

Search our weather history database for the weather conditions in past years. The results will help you decide how hot, cold, wet, or windy it might be!

Date:

Astronomy

May. 14, 2013 Rise Set
Actual Time 6:02 AM MDT 8:45 PM MDT
Civil Twilight 5:29 AM MDT 9:18 PM MDT
Nautical Twilight 4:47 AM MDT 10:00 PM MDT
Astronomical Twilight 3:59 AM MDT 10:49 PM MDT
Moon 9:45 AM MDT (5/14) No Moon Set
Length of Visible Light 15h 49m
Length of Day
14h 43m
Waxing Crescent, 19% of the Moon is Illuminated
May 14
Waxing Crescent
May 17
First Quarter
May 24
Full
May 31
Last Quarter
Jun 8
New

Hourly Weather History & Observations

Time (MDT) Temp. Dew Point Humidity Pressure Visibility Wind Dir Wind Speed Gust Speed Precip Events Conditions
12:53 AM 64.0 °F 36.0 °F 35% 29.81 in 10.0 mi South 11.5 mph - N/A   Clear
1:53 AM 62.1 °F 34.0 °F 35% 29.81 in 10.0 mi SSW 10.4 mph - N/A   Clear
2:53 AM 55.9 °F 34.0 °F 44% 29.83 in 10.0 mi NNE 4.6 mph - N/A   Clear
3:53 AM 51.1 °F 37.0 °F 59% 29.86 in 10.0 mi Calm Calm - N/A   Clear
4:53 AM 57.0 °F 32.0 °F 39% 29.86 in 10.0 mi South 10.4 mph - N/A   Clear
5:53 AM 55.0 °F 36.0 °F 49% 29.88 in 10.0 mi South 12.7 mph - N/A   Clear
6:53 AM 55.0 °F 39.9 °F 57% 29.92 in 10.0 mi South 16.1 mph - N/A   Clear
7:53 AM 57.0 °F 42.1 °F 57% 29.93 in 10.0 mi SSW 15.0 mph 23.0 mph N/A   Clear
8:53 AM 60.1 °F 42.1 °F 51% 29.94 in 10.0 mi SSW 16.1 mph 20.7 mph N/A   Clear
9:53 AM 62.1 °F 42.1 °F 48% 29.94 in 10.0 mi SSW 13.8 mph 23.0 mph N/A   Clear
10:53 AM 64.9 °F 42.1 °F 43% 29.93 in 10.0 mi SSW 17.3 mph 25.3 mph N/A   Clear
11:53 AM 68.0 °F 42.1 °F 39% 29.92 in 10.0 mi SSW 17.3 mph 27.6 mph N/A   Clear
12:53 PM 72.0 °F 39.0 °F 30% 29.90 in 10.0 mi SW 20.7 mph 29.9 mph N/A   Clear
1:53 PM 75.0 °F 39.0 °F 27% 29.86 in 10.0 mi SW 21.9 mph 29.9 mph N/A   Clear
2:53 PM 75.9 °F 37.0 °F 24% 29.85 in 10.0 mi SSW 23.0 mph 32.2 mph N/A   Clear
3:53 PM 75.0 °F 37.9 °F 26% 29.84 in 10.0 mi SSW 24.2 mph 32.2 mph N/A   Clear
4:53 PM 75.0 °F 37.9 °F 26% 29.80 in 10.0 mi SSW 21.9 mph 33.4 mph N/A   Clear
5:53 PM 75.0 °F 36.0 °F 24% 29.79 in 10.0 mi SSW 24.2 mph 34.5 mph N/A   Clear
6:53 PM 75.9 °F 27.0 °F 16% 29.77 in 10.0 mi SSW 23.0 mph 33.4 mph N/A   Clear
7:53 PM 73.9 °F 28.9 °F 19% 29.76 in 10.0 mi SW 24.2 mph 32.2 mph N/A   Clear
8:53 PM 69.1 °F 28.9 °F 22% 29.78 in 10.0 mi South 11.5 mph 19.6 mph N/A   Clear
9:53 PM 66.0 °F 35.1 °F 32% 29.81 in 10.0 mi South 17.3 mph 24.2 mph N/A   Clear
10:53 PM 64.0 °F 34.0 °F 33% 29.82 in 10.0 mi SSW 13.8 mph 19.6 mph N/A   Clear
11:53 PM 60.1 °F 34.0 °F 38% 29.83 in 10.0 mi Calm Calm - N/A   Clear